Location: Berlise
(49.6641°N, 4.1077°E)
Time: 02:07:22
(UTC+00:00)

FALCON 9 DEB - Pass Details

Date: 27 January 2021
Orbit: 377 x 389 km, 53.0° (Epoch: 28 February)

Event Time Altitude Azimuth Distance (km) Brightness Sun altitude
Exits shadow 06:27:31 - 242° (WSW) 1,763 5.8 -9.0°
Reaches altitude 10° 06:28:23 10° 242° (WSW) 1,405 5.3 -8.9°
Maximum altitude 06:31:31 80° 157° (SSE) 393 3.0 -8.4°
Drops below altitude 10° 06:34:39 10° 69° (ENE) 1,402 6.5 -7.9°
Sets 06:36:42 0° 68° (ENE) 2,255 7.6 -7.6°
